Regional Weather Roundup
Issued by NWS Northern Indiana

Home | Current Version | Previous Version | Graphics & Text | Print | Product List | Glossary On
Versions: 1 2 3 4 5 6 7 8 9 10 11 12 13 14 15 16 17 18 19 20 21 22 23 24 25 26 27 28 29 30 31 32 33 34 35 36 37 38 39 40 41 42 43 44 45 46 47 48 49 50
000
ASUS43 KIWX 060200
RWRIWX

KIWX WEATHER ROUNDUP
NATIONAL WEATHER SERVICE NORTHERN INDIANA
1000 PM EDT SUN JUL 05 2015

NOTE: "FAIR" INDICATES FEW OR NO CLOUDS BELOW 12,000 FEET WITH NO
SIGNIFICANT WEATHER AND/OR OBSTRUCTIONS TO VISIBILITY.

* THESE STATIONS ARE NOT UNDER NWS QUALITY CONTROL. THEY ALSO MAY NOT
  REPORT WEATHER SUCH AS PRECIPITATION OR FOG.

INZ001>027-060300-
NORTHERN INDIANA

CITY           SKY/WX    TMP DP  RH WIND       PRES   REMARKS
GARY*          PTCLDY   N/A N/A N/A SE5       30.03F
SOUTH BEND     CLEAR     75  61  61 S3        30.06R
GOSHEN         PTCLDY    70  63  78 CALM      30.06R
ANGOLA*          N/A     72  61  68 SE3       30.08R
FORT WAYNE     LGT RAIN  71  63  75 CALM      30.07S
PERU/GRISSOM   PTCLDY    72  64  78 S6        30.06R

$$
INZ028>050-060300-
CENTRAL INDIANA

CITY           SKY/WX    TMP DP  RH WIND       PRES   REMARKS
LAFAYETTE      CLEAR     71  63  75 CALM      30.04R
KOKOMO*        MOCLDY    72  64  78 S5        30.06S
MUNCIE*        PTCLDY    72  61  68 CALM      30.08R
INDIANAPOLIS   MOCLDY    74  60  61 SE5       30.06R

$$
MIZ043>046-050>051-056>058-064>065-071>073-077>080-060300-
SOUTHWEST LOWER MICHIGAN

CITY           SKY/WX    TMP DP  RH WIND       PRES   REMARKS
BATTLE CREEK   PTCLDY    74  62  66 S3        30.07S HAZE
BENTON HARBOR  CLEAR     68  62  81 CALM      30.04S
COLDWATER*     PTCLDY    70  60  70 CALM      30.08R
HILLSDALE*     PTCLDY    70  63  78 SE3       30.10R
HOLLAND        CLEAR     69  61  75 SE3       30.04F
GRAND RAPIDS   PTCLDY    73  63  70 SE5       30.05S
KALAMAZOO      CLEAR     75  61  61 S5        30.06S
STURGIS*       PTCLDY    73  61  64 SE8       30.07R
THREE RIVERS*  FAIR      72  63  73 CALM      30.07R

$$
OHZ001>008-015>018-024>025-060300-
NORTHWEST OHIO

CITY           SKY/WX    TMP DP  RH WIND       PRES   REMARKS
DEFIANCE       MOCLDY    70  61  73 E3        30.07S
FINDLAY        MOCLDY    73  62  68 E6        30.07F
TOLEDO EXPRESS MOCLDY    68  56  65 E3        30.07S
TOLEDO METCALF MOCLDY    68  60  75 E3        30.09S
LIMA           MOCLDY    68  64  87 CALM      30.08S

$$
AND FOR LAKE MICHIGAN COASTAL AND OPEN LAKE BUOY OBSERVATIONS

STATION/POSITION TEMP    WIND        PRES    VSBY  WAVE
                 AIR SEA DIR/SP/G                  HT/PER
                 (F)     (DEG/KT/KT) (MB)    (MI)  (FT/S)
CALUMET HARBOR    71     100/  7/  9   N/A
MICHIGAN CITY     73      50/  4/  5   N/A
BURNS HARBOR      70      80/  2/  6 1017.6S
SAINT JOSEPH      75      CALM  /  2 1017.3F
4 MI NW BRIDGMAN  70 68                N/A           0
MICHIGAN CITY     69 68   80/  4/  6   N/A           1

$$
&&



USA.gov is the U.S. government's official web portal to all federal, state and local government web resources and services.